Location: Rockford
(42.2710°N, 89.0940°W)
Time: 03:56:27
(UTC-05:00)

Daily predictions for brighter satellites

Satellite Brightness Start Highest point End
(mag) Time Altitude Azimuth Time Altitude Azimuth Time Altitude Azimuth
Cosmos 2369 Rocket 3.5 00:03:38 10° NW 00:07:06 34° WNW 00:07:06 34° WNW
CZ-2C R/B 4.0 00:17:13 10° N 00:21:05 35° NW 00:21:05 35° NW
ADEOS Rocket 4.1 00:17:08 10° NNE 00:21:59 40° NE 00:21:59 40° NE
USA 234 3.9 00:32:58 46° WNW 00:32:58 46° WNW 00:37:28 10° NW
CZ-4C R/B 4.0 00:29:46 23° WNW 00:31:25 27° NW 00:36:33 10° NNE
Mayak 1.5 00:32:33 10° N 00:33:35 17° N 00:33:35 17° N
ATLAS 5 CENTAUR R/B 3.8 00:32:34 10° NW 00:35:41 30° WNW 00:35:41 30° WNW
SeaSat 1 4.3 00:48:49 27° NNW 00:48:49 27° NNW 00:51:04 10° NNW
CZ-2D R/B 4.3 01:44:31 10° NE 01:47:20 16° E 01:47:20 16° E
COSMOS 2406 4.2 01:50:43 43° N 01:50:43 43° N 01:54:47 10° NNE
Cosmos 1464 Rocket 4.4 01:53:39 60° NNE 01:53:39 60° NNE 01:58:47 10° N
SL-16 R/B 4.0 01:51:48 25° E 01:53:49 30° ENE 01:59:08 10° N
Cosmos 1980 Rocket 4.4 01:50:09 10° N 01:54:17 21° NE 01:58:11 11° E
Cosmos 1697 Rocket 4.0 01:51:56 10° N 01:57:05 34° ENE 01:57:46 33° ENE
Cosmos 2082 Rocket 3.4 02:06:40 35° ENE 02:06:40 35° ENE 02:10:36 10° NE
ADEOS Rocket 4.3 02:03:02 10° N 02:08:53 30° WNW 02:08:56 30° WNW
Nadezhda 4 Rocket 4.2 02:08:18 10° N 02:13:59 63° ENE 02:13:59 63° ENE
Cosmos 1656 4.3 02:17:41 10° NNW 02:22:01 53° N 02:22:01 53° N
Resurs 1-4 Rocket 3.4 02:19:14 10° NNE 02:23:32 33° E 02:23:32 33° E
Cosmos 909 Rocket 4.0 02:28:40 10° NNW 02:34:29 78° NNW 02:34:29 78° NNW
NPP 4.1 02:29:54 10° NNE 02:34:34 58° ENE 02:34:34 58° ENE
SL-08 R/B 4.2 02:37:49 49° NE 02:37:49 49° NE 02:41:47 10° N
Cosmos 1833 Rocket 2.9 02:41:36 69° NNE 02:41:36 69° NNE 02:46:34 10° NNE
Lacrosse 4 Rocket 3.4 02:39:26 10° NNW 02:41:22 25° NNW 02:41:22 25° NNW
Cosmos 1932 4.4 02:53:22 79° SSE 02:53:36 80° ESE 03:00:01 10° NE
AQUA 4.2 02:54:03 10° NNE 02:58:01 61° NNE 02:58:01 61° NNE
Iridium 4 Rocket 3.9 03:00:48 48° NNE 03:00:48 48° NNE 03:04:08 10° N
Cosmos 1570 Rocket 4.3 03:00:10 61° E 03:00:10 61° E 03:05:16 10° NNE
Cosmos 2360 4.5 02:59:25 10° NNW 03:05:06 66° ENE 03:07:09 39° SE
Cosmos 1607 4.2 03:04:44 56° WNW 03:05:23 59° NW 03:11:49 10° NNE
APEX 4.4 03:06:54 70° WSW 03:07:32 76° WNW 03:13:28 10° NNE
Cosmos 2195 Rocket 4.4 03:02:35 10° N 03:08:47 85° E 03:09:49 64° SSE
Cosmos 1356 Rocket 4.4 03:10:57 42° ENE 03:10:57 42° ENE 03:14:10 10° NNE
Lacrosse 5 rocket 2.4 03:11:25 42° N 03:11:25 42° N 03:14:34 10° NE
Cosmos 468 Rocket 4.4 03:12:08 51° SE 03:12:40 53° ESE 03:17:51 10° NNE
ARIANE 5 R/B 2.8 03:07:53 10° NNE 03:13:05 59° E 03:13:42 55° SE
Spot 4 Rocket 4.2 03:08:45 10° NNE 03:13:53 62° ESE 03:14:23 59° SE
Cosmos 371 Rocket 4.3 03:17:11 36° NW 03:17:11 36° NW 03:21:02 10° N
Cosmos 1066 Rocket 4.1 03:18:26 70° SSE 03:19:02 81° E 03:24:29 10° NNE
Cosmos 1092 Rocket 4.1 03:15:54 10° NNW 03:21:59 56° W 03:22:10 56° W
Cosmos 2142 Rocket 4.3 03:22:36 62° SSW 03:23:43 84° W 03:29:53 10° N
Cosmos 1655 Rocket 4.3 03:17:38 10° N 03:23:59 65° E 03:27:55 24° SSE
Helios 1A Rocket 3.5 03:23:12 10° NNE 03:27:17 52° E 03:27:22 52° ESE
CZ-2D R/B 2.1 03:22:57 10° N 03:28:19 66° WNW 03:28:39 64° W
CZ-2D R/B 4.4 03:24:32 10° NNE 03:28:25 40° E 03:28:56 38° ESE
Cosmos 1726 Rocket 3.7 03:30:38 10° N 03:34:56 67° E 03:35:31 59° SE
SL-16 R/B 2.7 03:36:53 47° WSW 03:37:10 47° W 03:43:12 10° NNW
Cosmos 1980 Rocket 2.0 03:33:14 10° NNW 03:38:48 67° WSW 03:39:51 55° SSW
IRS-1D 3.6 03:34:19 10° N 03:39:25 62° WNW 03:40:00 58° WSW
Cosmos 1428 Rocket 4.3 03:34:38 10° N 03:40:51 83° W 03:43:29 37° S
Cosmos 1697 Rocket 3.7 03:35:54 10° NW 03:39:27 31° WNW 03:39:27 31° WNW
IRS-1C 4.4 03:39:18 10° N 03:44:24 47° WNW 03:45:01 45° W
Okean 1-7 Rocket 3.7 03:46:30 59° WNW 03:46:30 59° WNW 03:50:53 10° N
H-2A R/B 4.0 03:44:35 10° NNW 03:47:33 25° NW 03:47:33 25° NW
ADEOS II 3.0 03:43:53 10° NNE 03:48:54 44° E 03:52:21 19° SSE
Cosmos 2082 Rocket 3.2 03:48:31 30° WNW 03:49:32 31° NW 03:54:33 10° N
Cosmos 841 Rocket 4.1 03:48:22 29° SSE 03:50:42 50° ESE 03:55:43 10° NNE
Cosmos 304 Rocket 4.1 03:50:21 48° W 03:50:44 49° WNW 03:55:26 10° N
ADEOS 3.6 03:45:58 10° NNE 03:51:13 76° ESE 03:53:17 38° S
SL-16 R/B 2.9 03:46:17 10° NNW 03:51:52 54° ENE 03:57:24 10° SE
UNKNOWN OBJECT B 2.6 03:49:37 10° NNE 03:53:30 79° E 03:53:49 71° SSE
Cosmos 2058 Rocket 3.1 03:51:50 10° N 03:56:16 81° E 03:58:13 33° SSE
Cosmos 1544 4.4 03:53:55 10° NNW 03:56:05 30° NW 03:56:05 30° NW
MOZ.5/SAFIR/RUBIN 5/SL-8 4.4 04:00:06 38° W 04:00:06 38° W 04:04:07 10° NNW
Cosmos 2228 2.8 03:55:57 10° N 04:00:15 84° W 04:01:28 46° S
Cosmos 1606 Rocket 3.8 03:58:57 10° NNW 04:02:57 46° W 04:02:57 46° W
Resurs 1-4 Rocket 3.0 03:59:09 10° N 04:03:45 32° WNW 04:04:38 30° W
Meteor 1-22 Rocket 4.3 03:59:27 10° NNW 04:05:22 65° W 04:08:34 27° S
Cosmos 2322 Rocket 2.5 04:01:46 10° NNW 04:07:25 68° ENE 04:13:00 10° SSE
ATLAS 3B R/B 2.9 04:03:32 27° SSW 04:07:42 69° ESE 04:14:36 10° NE
Cosmos 1626 Rocket 4.4 04:06:34 18° SSE 04:09:34 48° E 04:13:44 10° NNE
NOSS 3-2 (A) 4.1 04:10:13 20° S 04:14:01 49° ESE 04:20:12 10° NE
SJ 16-02 3.0 04:11:08 10° N 04:15:12 35° ENE 04:19:15 10° SE
Cosmos 1892 Rocket 3.9 04:15:29 41° WSW 04:16:21 47° WNW 04:20:37 10° N
Cosmos 292 Rocket 4.0 04:13:38 25° S 04:16:25 66° ESE 04:21:12 10° NNE
Cosmos 1763 Rocket 3.5 04:14:42 35° SW 04:16:54 68° WNW 04:22:13 10° NNE
Cosmos 1842 3.2 04:16:46 46° SW 04:17:44 65° W 04:21:41 10° N
COSMOS 2487 4.4 04:18:57 17° NW 04:18:57 17° NW 04:21:02 10° NNW
ATLAS CENTAUR R/B 4.0 04:16:55 10° N 04:20:34 25° NE 04:24:24 10° ESE
deb Kosmos-1763 4.1 04:22:46 44° SW 04:23:48 69° WNW 04:27:34 10° NNE
USA 215 3.5 04:21:44 10° NE 04:28:13 64° SE 04:32:57 20° SSW
Cosmos 1898 Rocket 4.3 04:26:49 10° NW 04:31:18 30° W 04:32:39 27° SW
Cosmos 1805 3.6 04:29:32 10° NNW 04:33:13 41° W 04:34:26 31° SW
H-II Stage 2 4.4 04:30:22 14° S 04:33:54 25° SE 04:47:31 10° E
Cosmos 1953 2.5 04:30:08 10° N 04:34:14 74° E 04:38:16 10° SSE
Cosmos 44 3.5 04:31:04 10° NW 04:36:13 58° WSW 04:41:30 10° SSE
Cosmos 1766 4.5 04:37:16 10° NW 04:40:19 23° W 04:40:19 23° W
Cosmos 1937 Rocket 4.1 04:36:55 10° NW 04:41:34 34° W 04:45:29 13° SSW
Cosmos 1125 Rocket 4.0 04:39:05 10° NNW 04:44:23 63° ENE 04:49:37 10° SSE
Aureole 2 Rocket 3.4 04:43:31 10° NNW 04:47:17 55° ENE 04:50:48 10° SSE
Lacrosse 5 rocket 3.7 04:48:07 10° NW 04:50:30 15° NNW 04:52:48 10° NNE
ARIANE 5 R/B 4.1 04:48:05 10° NNW 04:51:43 19° WNW 04:54:02 15° W
Okean O Rocket 3.1 04:52:12 10° NNE 04:56:17 37° E 05:00:18 10° SSE
Timation 2 Rocket 4.4 04:52:40 18° WSW 04:56:52 43° WNW 05:02:33 10° NNE
ERBS 3.7 04:55:23 12° SSW 04:58:12 32° SE 05:01:17 10° ENE
Cosmos 1825 Rocket 4.4 04:55:25 10° S 04:59:36 52° E 05:03:48 10° NNE
Cosmos 1758 3.8 04:56:39 10° NNW 05:00:21 38° W 05:04:02 10° SSW
USA 267 4.3 04:56:54 10° E 05:03:05 47° NNE 05:09:16 10° NW
Cosmos 44 Rocket 3.7 05:00:19 10° NW 05:05:14 47° WSW 05:10:11 10° S
Cosmos 2266 Rocket 4.5 05:02:19 10° NNW 05:07:50 38° W 05:13:26 10° SSW
Cosmos 1244 Rocket 4.5 05:01:58 10° N 05:08:08 87° W 05:14:18 10° S
Cosmos 372 Rocket 3.9 05:03:03 10° NNW 05:08:17 75° WSW 05:13:26 10° SSE
Cosmos 836 Rocket 4.5 05:04:06 10° SSW 05:09:18 73° WNW 05:14:31 10° NNE
Cosmos 1733 3.8 05:05:59 10° NNW 05:09:32 35° W 05:13:04 10° SSW
USA 238 DEB 4.2 05:05:08 14° WSW 05:10:54 48° NW 05:17:38 10° NNE
USA 238 4.2 05:05:12 14° WSW 05:11:00 48° NW 05:17:45 10° NNE
Meteor 2-5 Rocket 4.2 05:06:09 10° S 05:11:35 62° E 05:17:06 10° NNE
DNEPR-1 R/B 3.9 05:11:12 13° SW 05:14:48 52° NW 05:19:22 10° NNE
PSLV R/B 3.8 05:15:00 10° N 05:19:03 48° WNW 05:23:04 10° SSW
Cosmos 2360 Rocket 2.1 05:14:43 10° NNW 05:20:20 73° WSW 05:25:56 10° SSE
BREEZE-M R/B 4.1 05:18:24 10° W 05:22:00 49° NNW 05:29:10 10° ENE
S3M 4.3 05:17:59 10° S 05:24:04 73° E 05:30:10 10° NNE
Cosmos 1953 Rocket 3.9 05:21:10 10° S 05:25:37 72° E 05:30:04 10° NNE
ADEOS II 3.3 05:24:08 10° N 05:28:21 25° WNW 05:32:33 10° WSW
Cosmos 1812 Rocket 4.3 05:25:36 10° NNW 05:29:37 33° W 05:33:36 10° SSW
CZ-4B R/B 3.2 05:26:11 10° N 05:30:17 48° WNW 05:34:09 10° SSW
BREEZE-M DEB (TANK) 3.9 05:23:22 10° WNW 05:31:39 31° WSW 05:34:48 10° S
Cosmos 2333 Rocket 3.9 05:29:01 10° N 05:34:19 39° ENE 05:39:36 10° SE
Cosmos 1470 3.9 05:32:17 10° NW 05:35:31 24° W 05:38:44 10° SW
SL-16 R/B 3.3 05:31:17 10° NW 05:35:32 22° W 05:39:45 10° SSW
